Location: ??
(23.7378°N, 120.7614°E)
Time: 23:18:02
(UTC+00:00)

Daily predictions for brighter satellites

Satellite Brightness Start Highest point End
(mag) Time Altitude Azimuth Time Altitude Azimuth Time Altitude Azimuth
Nadezhda 4 Rocket 4.4 12:01:53 10° N 12:06:16 49° NNE 12:06:16 49° NNE
Milstar 3 Cent rocket 2.6 12:07:46 10° W 12:13:00 57° WNW 12:13:00 57° WNW
Cosmos 1125 Rocket 4.4 12:12:18 10° SW 12:17:20 46° WNW 12:22:26 10° N
ATLAS CENTAUR Rocket 4.0 18:35:47 10° WSW 19:31:43 73° NNW 19:37:45 10° ENE
Cosmos 2082 3.8 19:33:18 10° NNW 19:38:59 75° ENE 19:44:41 10° SSE
Cosmos 1763 Rocket 4.3 19:37:58 36° SSE 19:39:34 48° E 19:44:40 10° NNE
Cosmos 1980 Rocket 4.0 19:48:07 18° NNW 19:48:07 18° NNW 19:49:49 10° N
Meteor 1-10 Rocket 4.3 19:44:46 41° S 19:46:47 74° E 19:52:33 10° N
Cosmos 2322 Rocket 2.7 19:47:17 27° S 19:50:09 56° ESE 19:55:41 10° NNE
SL-16 R/B 2.1 19:55:50 47° SSW 19:57:32 86° ESE 20:03:13 10° NNE
Meteor 1-4 Rocket 4.4 20:01:19 23° N 20:01:19 23° N 20:02:43 10° N
ADEOS Rocket 4.4 19:53:55 10° SE 20:00:43 44° ENE 20:06:55 10° N
USA 234 4.2 19:55:04 10° ESE 20:01:11 44° NE 20:07:17 10° NNW
GPS 2-18 Rocket1 3.9 20:02:17 45° SE 20:02:17 45° SE 20:05:27 10° E
H-2A R/B 2.0 19:57:21 10° SSE 20:01:36 81° ENE 20:05:58 10° N
Cosmos 468 Rocket 3.9 20:02:23 55° SSW 20:03:33 79° WNW 20:08:51 10° NNE
Meteor 1-14 Rocket 4.0 19:59:11 10° NNW 20:04:43 72° W 20:10:12 10° S
Cosmos 1484 Rocket 4.3 20:02:12 10° NNE 20:05:55 37° E 20:09:38 10° SSE
Cosmos 2263 Rocket 4.3 20:01:13 10° N 20:05:56 27° ENE 20:10:40 10° ESE
Skynet4D Del rocket 3.8 20:04:45 48° WNW 20:06:12 64° N 20:12:20 10° E
PAYLOAD A 4.4 20:02:23 10° N 20:05:52 41° NW 20:05:52 41° NW
CZ-2C R/B 2.5 20:02:09 10° N 20:07:14 62° WNW 20:08:03 54° WSW
SJ 16-02 3.6 20:05:05 10° NNE 20:08:47 26° ENE 20:12:28 10° SE
Meteor 2-6 Rocket 4.3 20:10:39 47° W 20:10:51 47° W 20:16:18 10° N
Cosmos 540 Rocket 4.3 20:08:57 10° S 20:13:53 49° ESE 20:18:51 10° NNE
ERS-2 2.6 20:11:30 10° SSE 20:15:05 60° ENE 20:18:41 10° N
Meteor 1-31 Rocket 4.0 20:12:54 10° NNE 20:16:31 40° E 20:20:09 10° S
H-2A R/B (2) 3.5 20:15:40 25° SSW 20:16:54 27° S 20:27:26 10° SE
Cosmos 1934 Rocket 4.2 20:12:48 10° NNW 20:18:28 43° W 20:24:10 10° SSW
Cosmos 44 Rocket 3.6 20:17:34 16° S 20:21:09 61° ESE 20:25:48 10° NNE
FUSE 4.0 20:22:56 38° W 20:24:48 62° SSW 20:30:08 10° ESE
Meteor 1-5 Rocket 4.1 20:20:51 10° N 20:26:13 90° SE 20:31:42 10° S
Delta 202 4.3 20:25:10 27° SW 20:27:28 40° S 20:32:32 10° ESE
SJ-6F 4.4 20:27:02 10° N 20:31:00 54° WNW 20:33:16 24° SW
DASH 2.5 20:28:34 25° WNW 20:31:37 84° SSW 20:34:22 10° ESE
Landsat 5 4.1 20:27:32 10° SSW 20:31:40 38° W 20:35:53 10° NNW
Sakura Rocket 3.5 20:32:24 32° SW 20:33:02 34° SSW 20:36:27 10° SE
Cosmos 2208 Rocket 4.4 20:30:15 10° S 20:35:30 67° ESE 20:40:42 10° NNE
SL-4 R/B 3.4 20:34:51 25° WNW 20:35:47 27° NW 20:39:46 10° NNE
IRIDIUM 104 4.4 20:31:26 10° NNW 20:36:30 54° W 20:41:33 10° SSW
Cosmos 1605 Rocket 4.2 20:34:44 10° NNW 20:40:48 47° W 20:46:52 10° SSW
Cosmos 1000 Rocket 4.4 20:38:16 10° S 20:44:30 81° W 20:50:42 10° N
Timation 1 Rocket 4.4 20:38:50 10° NNW 20:44:39 55° WSW 20:50:28 10° S
Cosmos 1500 4.0 20:44:40 10° NNW 20:47:59 29° W 20:51:18 10° SSW
Meteor 1-11 Rocket 3.7 20:43:56 10° N 20:49:40 88° W 20:55:15 10° S
USA 32 3.9 20:44:31 10° N 20:49:44 72° W 20:54:56 10° S
ADEOS 4.0 20:45:41 10° N 20:50:32 41° WNW 20:55:23 10° SW
Meteor 1-27 Rocket 4.1 20:45:52 10° SSW 20:51:27 44° W 20:57:05 10° N
Cosmos 1666 2.5 20:50:16 10° N 20:54:02 69° W 20:57:46 10° S
Cosmos 1707 Rocket 4.4 20:51:35 11° SW 20:55:00 27° W 20:58:42 10° NNW
CZ-4B R/B 1.1 20:53:12 10° S 20:56:12 60° WSW 20:59:17 10° NNW
deb Chang Zheng 4 4.4 20:53:06 10° NNW 20:56:44 28° WNW 21:00:21 10° SW
GPS 2-15 Rocket1 3.5 20:56:47 16° WSW 21:00:15 51° S 21:04:45 10° ESE
Cosmos 1814 Rocket 4.0 20:59:00 10° SSW 21:04:04 59° WNW 21:09:11 10° N
Meteor 2-20 4.4 20:58:27 10° SSW 21:04:34 70° W 21:10:40 10° N
CZ-4B R/B 2.5 21:01:52 10° N 21:05:26 68° WNW 21:08:58 10° SSW
Cosmos 1937 Rocket 4.3 21:04:58 10° N 21:09:59 55° ENE 21:14:59 10° SSE
Cosmos 841 Rocket 4.0 21:05:36 10° SW 21:10:22 37° WNW 21:15:12 10° N
Okean 1 3.3 21:08:26 10° S 21:12:28 89° W 21:16:31 10° N
SAR-Lupe-4 3.8 21:09:46 10° S 21:13:11 45° W 21:16:38 10° NNW
Yuri Rocket 3.6 21:09:45 10° WSW 21:14:32 81° SSE 21:21:01 10° ENE
Cosmos 2100 Rocket 4.0 21:08:55 10° N 21:15:14 69° W 21:21:31 10° S
Okean 1-7 4.1 21:11:36 10° SSE 21:15:44 49° E 21:19:51 10° NNE
Cosmos 1802 Rocket 4.1 21:10:57 10° N 21:17:11 88° E 21:23:29 10° S
ALOS 3.3 21:15:07 10° NNW 21:18:53 25° WNW 21:22:40 10° SW
Cosmos 2360 Rocket 2.7 21:13:38 10° SW 21:18:54 40° WNW 21:24:12 10° N
Spot 2 3.8 21:17:55 10° N 21:21:57 78° WNW 21:25:58 10° SSW
Cosmos 1743 3.2 21:21:46 10° N 21:25:32 65° E 21:29:17 10° SSE
Cosmos 1733 Rocket 3.1 21:21:35 10° NNW 21:25:49 56° W 21:30:01 10° S
Cosmos 2123 Rocket 4.1 21:20:09 10° SSW 21:26:14 59° W 21:32:23 10° N
DELTA 4 R/B 2.5 21:26:34 10° WNW 21:36:41 66° SSW 21:39:38 10° ESE
